K4FB Weather Reports


Display with metric or nautical units.
time (UTC)temp
F
wind
direction
speed
MPH
gust
MPH
rain 1hr
in
rain 24hr
in
rain mn
in
humidity
%
barometer
mb
20260507193015 98 209 7.0 16.0 0.00 0.00 0.00 35 1014.9
20260507192504 98 238 6.0 16.0 0.00 0.00 0.00 35 1014.9
20260507192009 98 221 7.0 15.0 0.00 0.00 0.00 36 1015.0
20260507191514 98 238 8.0 15.0 0.00 0.00 0.00 36 1015.1
20260507191007 98 160 2.0 13.0 0.00 0.00 0.00 41 1015.2
20260507190504 98 215 9.0 13.0 0.00 0.00 0.00 36 1015.3
20260507190016 98 196 7.0 14.0 0.00 0.00 0.00 36 1015.3
20260507185506 98 243 5.0 16.0 0.00 0.00 0.00 39 1015.4
20260507185005 98 238 6.0 16.0 0.00 0.00 0.00 36 1015.5
20260507184009 97 225 6.0 14.0 0.00 0.00 0.00 39 1015.7
20260507183504 97 197 5.0 13.0 0.00 0.00 0.00 42 1015.8
20260507183024 97 251 8.0 13.0 0.00 0.00 0.00 39 1015.8
20260507182505 96 221 6.0 12.0 0.00 0.00 0.00 43 1015.9
20260507182004 95 233 6.0 16.0 0.00 0.00 0.00 42 1016.0
20260507181508 95 200 4.0 16.0 0.00 0.00 0.00 42 1016.1
20260507181006 95 246 10.0 16.0 0.00 0.00 0.00 41 1016.1
20260507180507 95 183 8.0 15.0 0.00 0.00 0.00 45 1016.2
20260507180029 95 225 6.0 16.0 0.00 0.00 0.00 44 1016.3
20260507175507 94 248 8.0 18.0 0.00 0.00 0.00 44 1016.3
20260507174531 94 204 4.0 17.0 0.00 0.00 0.00 49 1016.3
20260507174004 94 194 10.0 17.0 0.00 0.00 0.00 47 1016.4
20260507173505 94 197 5.0 17.0 0.00 0.00 0.00 47 1016.4
20260507172510 94 194 9.0 16.0 0.00 0.00 0.00 47 1016.5
20260507172005 94 199 8.0 16.0 0.00 0.00 0.00 49 1016.6
20260507171512 93 197 7.0 13.0 0.00 0.00 0.00 48 1016.6
20260507171004 93 237 6.0 17.0 0.00 0.00 0.00 49 1016.7
20260507170507 93 226 11.0 17.0 0.00 0.00 0.00 49 1016.7
20260507170021 92 260 8.0 15.0 0.00 0.00 0.00 51 1016.8
20260507165506 92 258 5.0 14.0 0.00 0.00 0.00 49 1016.8
20260507165004 92 203 8.0 16.0 0.00 0.00 0.00 49 1017.0
20260507164513 92 226 11.0 16.0 0.00 0.00 0.00 49 1016.8
20260507163509 92 186 7.0 16.0 0.00 0.00 0.00 53 1017.0
20260507163022 92 255 6.0 16.0 0.00 0.00 0.00 50 1016.9
20260507162506 92 266 6.0 15.0 0.00 0.00 0.00 52 1016.9
20260507162009 92 252 9.0 15.0 0.00 0.00 0.00 54 1017.0
20260507161538 91 214 6.0 14.0 0.00 0.00 0.00 53 1017.1
20260507161007 91 259 6.0 12.0 0.00 0.00 0.00 53 1017.1
20260507160509 91 289 5.0 13.0 0.00 0.00 0.00 52 1017.1
20260507160016 91 219 8.0 13.0 0.00 0.00 0.00 53 1017.2
20260507155507 90 184 4.0 15.0 0.00 0.00 0.00 59 1017.3
20260507155007 90 190 9.0 15.0 0.00 0.00 0.00 58 1017.3
20260507154519 90 229 7.0 14.0 0.00 0.00 0.00 58 1017.3
20260507154008 90 196 5.0 13.0 0.00 0.00 0.00 59 1017.4
20260507153504 89 215 5.0 13.0 0.00 0.00 0.00 60 1017.6
20260507152509 89 222 7.0 11.0 0.00 0.00 0.00 57 1017.4
20260507152012 89 195 5.0 14.0 0.00 0.00 0.00 57 1017.4
20260507151535 89 187 7.0 14.0 0.00 0.00 0.00 57 1017.6
20260507151007 88 199 7.0 13.0 0.00 0.00 0.00 56 1017.5
20260507150511 88 213 5.0 14.0 0.00 0.00 0.00 59 1017.5
20260507150027 88 189 7.0 16.0 0.00 0.00 0.00 57 1017.5
20260507145503 87 193 5.0 16.0 0.00 0.00 0.00 60 1017.5
20260507145007 87 214 7.0 12.0 0.00 0.00 0.00 61 1017.6
20260507144516 86 196 4.0 13.0 0.00 0.00 0.00 61 1017.7
20260507144003 86 178 6.0 13.0 0.00 0.00 0.00 60 1017.5
20260507143502 85 192 6.0 13.0 0.00 0.00 0.00 62 1017.5
20260507143003 85 200 7.0 13.0 0.00 0.00 0.00 62 1017.5
20260507142504 84 205 6.0 17.0 0.00 0.00 0.00 63 1017.5
20260507142005 84 184 7.0 17.0 0.00 0.00 0.00 62 1017.5
20260507141505 84 229 7.0 16.0 0.00 0.00 0.00 63 1017.6
20260507140505 83 198 5.0 17.0 0.00 0.00 0.00 65 1017.8
20260507140005 82 187 8.0 12.0 0.00 0.00 0.00 64 1017.6
20260507135006 81 164 5.0 12.0 0.00 0.00 0.00 64 1017.6
20260507134526 81 175 5.0 12.0 0.00 0.00 0.00 65 1017.7
20260507134003 80 199 5.0 12.0 0.00 0.00 0.00 64 1017.7
20260507133507 79 184 6.0 9.0 0.00 0.00 0.00 1017.8
20260507133014 79 182 5.0 11.0 0.00 0.00 0.00 1017.6
20260507132503 78 190 7.0 11.0 0.00 0.00 0.00 73 1017.6
20260507132003 77 215 5.0 10.0 0.00 0.00 0.00 73 1017.5
20260507131516 77 159 3.0 10.0 0.00 0.00 0.00 74 1017.4
20260507131004 76 167 4.0 10.0 0.00 0.00 0.00 76 1017.3
20260507130005 75 198 4.0 9.0 0.00 0.00 0.00 79 1017.1
20260507125505 74 167 5.0 9.0 0.00 0.00 0.00 79 1017.1
20260507124005 71 200 3.0 7.0 0.00 0.00 0.00 87 1017.0
20260507123506 71 193 4.0 7.0 0.00 0.00 0.00 87 1017.0
20260507123016 70 180 4.0 7.0 0.00 0.00 0.00 89 1017.1
20260507122505 69 176 3.0 6.0 0.00 0.00 0.00 91 1017.1
20260507121504 69 168 2.0 5.0 0.00 0.00 0.00 93 1017.1
20260507121003 68 177 2.0 5.0 0.00 0.00 0.00 93 1017.0
20260507120507 68 186 2.0 5.0 0.00 0.00 0.00 94 1017.0
20260507120008 67 198 0.0 5.0 0.00 0.00 0.00 94 1017.0
20260507115504 67 195 1.0 5.0 0.00 0.00 0.00 95 1016.9
20260507115007 67 194 3.0 5.0 0.00 0.00 0.00 95 1016.8
20260507114520 66 186 2.0 5.0 0.00 0.00 0.00 95 1016.8
20260507114003 66 138 0.0 2.0 0.00 0.00 0.00 94 1016.8
20260507113010 66 360 0.0 2.0 0.00 0.00 0.00 94 1016.6
20260507112507 66 360 0.0 1.0 0.00 0.00 0.00 94 1016.6
20260507112003 66 162 0.0 1.0 0.00 0.00 0.00 94 1016.5
20260507111519 66 161 0.0 1.0 0.00 0.00 0.00 94 1016.5
20260507111003 66 161 0.0 0.0 0.00 0.00 0.00 94 1016.6
20260507110508 66 181 0.0 0.0 0.00 0.00 0.00 94 1016.6
20260507110005 66 181 0.0 0.0 0.00 0.00 0.00 94 1016.5
20260507105504 66 181 0.0 0.0 0.00 0.00 0.00 94 1016.6
20260507105003 66 181 0.0 0.0 0.00 0.00 0.00 94 1016.5
20260507104508 66 181 0.0 0.0 0.00 0.00 0.00 94 1016.4
20260507104006 66 186 0.0 0.0 0.00 0.00 0.00 94 1016.4
20260507103504 66 186 0.0 0.0 0.00 0.00 0.00 93 1016.4
20260507103013 66 186 0.0 0.0 0.00 0.00 0.00 93 1016.4
20260507102503 66 186 0.0 0.0 0.00 0.00 0.00 93 1016.5
20260507102007 66 186 0.0 0.0 0.00 0.00 0.00 93 1016.4
20260507101521 66 186 0.0 0.0 0.00 0.00 0.00 93 1016.3
20260507101004 66 186 0.0 0.0 0.00 0.00 0.00 93 1016.3
20260507100504 67 186 0.0 0.0 0.00 0.00 0.00 93 1016.1
20260507100021 67 186 0.0 0.0 0.00 0.00 0.00 94 1016.1
20260507095507 67 186 0.0 0.0 0.00 0.00 0.00 94 1016.1
20260507095005 66 186 0.0 0.0 0.00 0.00 0.00 93 1015.8
20260507094508 67 186 0.0 0.0 0.00 0.00 0.00 93 1015.7
20260507094003 67 186 0.0 0.0 0.00 0.00 0.00 93 1015.7
20260507093503 67 186 0.0 0.0 0.00 0.00 0.00 93 1015.7
20260507093011 67 186 0.0 0.0 0.00 0.00 0.00 93 1015.8
20260507092503 67 186 0.0 0.0 0.00 0.00 0.00 93 1015.7
20260507092003 67 186 0.0 0.0 0.00 0.00 0.00 93 1015.8
20260507091508 67 186 0.0 0.0 0.00 0.00 0.00 93 1015.8
20260507091004 67 186 0.0 0.0 0.00 0.00 0.00 93 1015.9
20260507090507 67 186 0.0 0.0 0.00 0.00 0.00 93 1015.8
20260507090035 67 186 0.0 0.0 0.00 0.00 0.00 93 1015.8
20260507085504 68 186 0.0 0.0 0.00 0.00 0.00 93 1015.9
20260507085004 68 186 0.0 0.0 0.00 0.00 0.00 93 1015.9
20260507084533 68 186 0.0 0.0 0.00 0.00 0.00 93 1015.9
20260507084005 68 186 0.0 0.0 0.00 0.00 0.00 93 1015.7
20260507083505 68 186 0.0 0.0 0.00 0.00 0.00 92 1015.6
20260507083013 68 186 0.0 0.0 0.00 0.00 0.00 93 1015.5
20260507082504 68 186 0.0 0.0 0.00 0.00 0.00 91 1015.5
20260507082004 68 186 0.0 0.0 0.00 0.00 0.00 91 1015.5
20260507081514 68 186 0.0 0.0 0.00 0.00 0.00 91 1015.3
20260507081006 68 186 0.0 0.0 0.00 0.00 0.00 91 1015.4
20260507080506 68 186 0.0 0.0 0.00 0.00 0.00 92 1015.4
20260507075508 68 186 0.0 0.0 0.00 0.00 0.00 91 1015.5
20260507075010 69 186 0.0 0.0 0.00 0.00 0.00 91 1015.5
20260507074524 69 186 0.0 0.0 0.00 0.00 0.00 91 1015.6
20260507074005 69 186 0.0 0.0 0.00 0.00 0.00 91 1015.6
20260507073025 69 186 0.0 0.0 0.00 0.00 0.00 91 1015.8
20260507072007 69 186 0.0 0.0 0.00 0.00 0.00 90 1015.8
20260507071511 70 186 0.0 0.0 0.00 0.00 0.00 91 1015.9
20260507071005 70 186 0.0 0.0 0.00 0.00 0.00 90 1015.8
20260507070507 70 186 0.0 0.0 0.00 0.00 0.00 89 1015.7
20260507070016 70 186 0.0 0.0 0.00 0.00 0.00 89 1015.7
20260507065508 70 186 0.0 0.0 0.00 0.00 0.00 89 1015.9
20260507064518 70 186 0.0 0.0 0.00 0.00 0.00 89 1015.8
20260507064010 70 186 0.0 1.0 0.00 0.00 0.00 89 1016.0
20260507063504 70 186 0.0 2.0 0.00 0.00 0.00 89 1016.0
20260507063022 70 186 0.0 2.0 0.00 0.00 0.00 88 1016.2
20260507061515 71 186 0.0 0.0 0.00 0.00 0.00 86 1016.5
20260507061002 71 186 0.0 0.0 0.00 0.00 0.00 86 1016.6
20260507060505 72 186 0.0 0.0 0.00 0.00 0.00 85 1016.5
20260507060011 72 186 0.0 0.0 0.00 0.00 0.00 84 1016.6
20260507055506 72 186 0.0 0.0 0.00 0.00 0.00 84 1016.6
20260507055007 72 186 0.0 0.0 0.00 0.00 0.00 85 1016.5
20260507054515 73 186 0.0 1.0 0.00 0.00 0.00 85 1016.6
20260507054003 73 186 0.0 1.0 0.00 0.00 0.00 85 1016.6
20260507053502 73 186 0.0 3.0 0.00 0.00 0.00 84 1016.6
20260507053006 73 186 0.0 3.0 0.00 0.00 0.00 84 1016.8
20260507052503 74 171 0.0 0.0 0.00 0.00 0.00 83 1016.9
20260507052000 74 171 0.0 0.0 0.00 0.00 0.00 82 1016.9
20260507051504 74 171 0.0 0.0 0.00 0.00 0.00 82 1017.1
20260507051003 74 171 0.0 0.0 0.00 0.00 0.00 81 1017.1
20260507050503 74 171 0.0 4.0 0.00 0.00 0.00 81 1017.1
20260507045503 75 175 1.0 3.0 0.00 0.00 0.00 81 1017.2
20260507045003 75 176 0.0 3.0 0.00 0.00 0.00 80 1017.4
20260507044507 75 175 0.0 1.0 0.00 0.00 0.00 79 1017.3
20260507044002 76 175 0.0 1.0 0.00 0.00 0.00 79 1017.3
20260507043502 76 175 0.0 3.0 0.00 0.00 0.00 79 1017.3
20260507043005 76 175 0.0 3.0 0.00 0.00 0.00 79 1017.3
20260507042503 76 171 0.0 0.0 0.00 0.00 0.00 80 1017.3
20260507042003 76 305 0.0 0.0 0.00 0.00 0.00 80 1017.2
20260507041508 76 306 0.0 0.0 0.00 0.00 0.00 80 1017.1
20260507041003 76 306 0.0 0.0 0.00 0.00 0.00 80 1017.1
20260507040503 75 306 0.0 0.0 0.00 0.00 0.00 80 1017.0
20260507040006 75 244 0.0 0.0 0.00 0.00 0.00 80 1017.2
20260507035503 75 242 0.0 0.0 0.00 0.00 0.00 80 1017.2
20260507035003 75 240 0.0 0.0 0.00 0.00 0.00 80 1017.2
20260507034004 75 240 0.0 0.0 0.00 0.00 0.00 78 1017.1
20260507033504 75 240 0.0 0.0 0.00 0.00 0.00 77 1017.0
20260507033003 75 240 0.0 0.0 0.00 0.00 0.00 77 1016.9
20260507032503 76 240 0.0 0.0 0.00 0.00 0.00 76 1017.0
20260507032002 76 240 0.0 2.0 0.00 0.00 0.00 76 1017.0
20260507031507 76 240 0.0 2.0 0.00 0.00 0.00 1016.9
20260507031003 76 240 0.0 2.0 0.00 0.00 0.00 1016.7
20260507030503 77 239 0.0 4.0 0.00 0.00 0.00 75 1016.8
20260507030004 77 239 2.0 4.0 0.00 0.00 0.00 75 1016.8
20260507025505 77 250 2.0 3.0 0.00 0.00 0.00 74 1016.9
20260507025003 77 261 1.0 7.0 0.00 0.00 0.00 73 1016.7
20260507024508 78 238 0.0 7.0 0.00 0.00 0.00 73 1016.8
20260507024004 78 250 3.0 5.0 0.00 0.00 0.00 72 1016.9
20260507023503 78 244 1.0 5.0 0.00 0.00 0.00 72 1017.1
20260507022503 78 227 2.0 4.0 0.00 0.00 0.00 72 1017.0
20260507022006 78 254 2.0 6.0 0.00 0.00 0.00 71 1017.0
20260507021504 78 254 1.0 6.0 0.00 0.00 0.00 71 1017.0
20260507021007 78 278 2.0 5.0 0.00 0.00 0.00 70 1016.9
20260507020503 78 233 3.0 6.0 0.00 0.00 0.00 69 1016.8
20260507020008 78 242 3.0 6.0 0.00 0.00 0.00 69 1016.8
20260507015506 79 234 3.0 6.0 0.00 0.00 0.00 69 1016.7
20260507015003 79 212 2.0 5.0 0.00 0.00 0.00 68 1016.8
20260507014506 79 246 2.0 7.0 0.00 0.00 0.00 68 1016.7
20260507014004 79 239 2.0 10.0 0.00 0.00 0.00 67 1016.7
20260507013503 80 214 4.0 10.0 0.00 0.00 0.00 66 1016.6
20260507013007 80 275 5.0 8.0 0.00 0.00 0.00 65 1016.6
20260507012503 80 243 4.0 8.0 0.00 0.00 0.00 65 1016.4
20260507012003 80 248 3.0 10.0 0.00 0.00 0.00 65 1016.3
20260507011516 81 240 2.0 11.0 0.00 0.00 0.00 65 1016.3
20260507011002 81 261 4.0 11.0 0.00 0.00 0.00 65 1016.4
20260507010503 81 231 5.0 10.0 0.00 0.00 0.00 65 1016.3
20260507010015 81 245 3.0 11.0 0.00 0.00 0.00 66 1016.2
20260507005504 81 241 5.0 11.0 0.00 0.00 0.00 66 1016.0
20260507005003 81 215 5.0 11.0 0.00 0.00 0.00 66 1015.9
20260507004509 82 221 6.0 11.0 0.00 0.00 0.00 66 1015.9
20260507004005 82 225 4.0 9.0 0.00 0.00 0.00 67 1015.9
20260507003502 83 224 4.0 8.0 0.00 0.00 0.00 66 1015.9
20260507003015 83 238 4.0 10.0 0.00 0.00 0.00 66 1015.7
20260507002504 83 246 3.0 10.0 0.00 0.00 0.00 65 1015.7
20260507002003 84 256 6.0 10.0 0.00 0.00 0.00 65 1015.7
20260507001508 84 215 5.0 10.0 0.00 0.00 0.00 64 1015.7
20260507001004 85 239 4.0 10.0 0.00 0.00 0.00 63 1015.7
20260507000503 86 229 5.0 9.0 0.00 0.00 0.00 62 1015.7
20260507000008 86 238 5.0 10.0 0.00 0.00 0.00 60 1015.6
20260506235504 87 234 4.0 10.0 0.00 0.00 0.00 58 1015.6
20260506235003 88 223 5.0 9.0 0.00 0.00 0.00 57 1015.5
20260506234507 89 260 5.0 8.0 0.00 0.00 0.00 55 1015.3
20260506234003 90 274 2.0 8.0 0.00 0.00 0.00 54 1015.3
20260506233502 91 195 5.0 8.0 0.00 0.00 0.00 39 1015.2
20260506233011 91 196 0.0 3.0 0.00 0.00 0.00 39 1015.2
20260506232505 92 196 1.0 4.0 0.00 0.00 0.00 40 1015.2
20260506232004 92 198 1.0 4.0 0.00 0.00 0.00 36 1015.3
20260506231508 93 193 2.0 6.0 0.00 0.00 0.00 36 1015.3
20260506231005 94 198 3.0 6.0 0.00 0.00 0.00 35 1015.3
20260506230503 96 217 2.0 5.0 0.00 0.00 0.00 34 1015.3
20260506230013 97 136 1.0 5.0 0.00 0.00 0.00 35 1015.2
20260506225503 98 192 1.0 5.0 0.00 0.00 0.00 32 1015.3
20260506225004 99 167 2.0 5.0 0.00 0.00 0.00 34 1015.4
20260506224511 99 220 0.0 2.0 0.00 0.00 0.00 35 1015.3
20260506224003 99 220 0.0 3.0 0.00 0.00 0.00 32 1015.4
20260506222504 100 209 4.0 7.0 0.00 0.00 0.00 31 1015.5
20260506222005 101 190 1.0 4.0 0.00 0.00 0.00 32 1015.5
20260506221510 100 156 0.0 3.0 0.00 0.00 0.00 32 1015.5
20260506220012 101 232 2.0 5.0 0.00 0.00 0.00 32 1015.5
20260506215506 101 142 1.0 5.0 0.00 0.00 0.00 32 1015.5
20260506215002 101 107 3.0 6.0 0.00 0.00 0.00 32 1015.5
20260506214518 101 135 1.0 6.0 0.00 0.00 0.00 33 1015.5
20260506214007 101 148 1.0 8.0 0.00 0.00 0.00 33 1015.5
20260506213503 101 154 4.0 8.0 0.00 0.00 0.00 32 1015.5
20260506213013 101 200 3.0 6.0 0.00 0.00 0.00 32 1015.6
20260506212004 100 225 2.0 9.0 0.00 0.00 0.00 32 1015.6
20260506211510 99 204 1.0 10.0 0.00 0.00 0.00 36 1015.6
20260506210505 99 220 3.0 12.0 0.00 0.00 0.00 32 1015.5
20260506210008 99 192 5.0 12.0 0.00 0.00 0.00 34 1015.4
20260506205003 99 213 5.0 10.0 0.00 0.00 0.00 36 1015.5
20260506204515 99 233 5.0 14.0 0.00 0.00 0.00 38 1015.5
20260506204003 99 209 7.0 14.0 0.00 0.00 0.00 34 1015.5
20260506203502 99 215 3.0 8.0 0.00 0.00 0.00 35 1015.6
20260506203015 99 329 2.0 7.0 0.00 0.00 0.00 35 1015.6
20260506202503 99 305 1.0 8.0 0.00 0.00 0.00 37 1015.7
20260506202007 99 265 4.0 10.0 0.00 0.00 0.00 38 1015.8
20260506201515 99 207 1.0 10.0 0.00 0.00 0.00 38 1015.7
20260506201003 99 215 4.0 8.0 0.00 0.00 0.00 42 1015.7
20260506200502 98 169 4.0 10.0 0.00 0.00 0.00 40 1015.8
20260506200015 98 182 2.0 10.0 0.00 0.00 0.00 37 1015.8
20260506195007 98 188 7.0 12.0 0.00 0.00 0.00 36 1015.7
20260506194514 99 192 3.0 12.0 0.00 0.00 0.00 41 1015.7
20260506193506 98 216 2.0 11.0 0.00 0.00 0.00 41 1016.0